Wind_Speed
17 16 16 19 19 21 24 24 22 20 22 25 26 24 23 23 22 21 22 25 27 26 25 24 24 24 25 25 24 23 22 21 22 22 21 21 20 19 18 18 18 18 18 18 18 19 19 19 20 20 20 20 19 19 20 20 20 20 21 21 22 22 22 21 22 22 21 21 21 21 22 21 21 21 21 21 20 20 20 20 20 21 21 21 21
14 12 13 14 14 18 23 25 23 23 25 27 26 25 24 24 24 22 23 26 28 27 26 26 25 25 25 25 24 23 22 22 22 22 21 21 20 19 19 19 19 19 18 19 19 20 20 19 20 20 20 20 20 20 21 21 21 21 22 22 22 22 23 22 22 22 22 23 23 23 22 22 22 22 22 21 21 21 21 21 21 22 22 22 22
13 12 11 11 13 16 20 23 23 23 25 26 26 26 25 25 25 23 23 26 29 29 28 26 25 25 25 25 24 23 22 22 22 22 22 21 21 20 20 20 20 20 20 20 21 20 20 20 19 20 21 21 21 21 21 21 21 22 22 22 22 22 22 22 21 22 23 23 23 22 21 22 22 23 23 22 22 22 22 22 23 23 23 24 24
11 11 11 10 11 14 18 22 22 22 24 27 27 26 25 24 24 22 23 27 29 28 27 25 25 25 25 24 24 23 22 21 22 22 22 21 21 21 21 20 20 21 21 22 21 21 20 19 20 21 22 22 22 22 23 23 23 23 23 23 23 22 22 22 22 21 22 22 22 21 22 22 23 24 24 24 24 24 24 24 24 24 24 24 24
10 10 11 10 8 10 14 19 21 23 25 26 26 25 24 24 22 22 23 26 27 26 26 26 27 27 25 24 24 24 22 22 22 22 22 22 22 22 21 21 21 22 23 23 22 22 21 20 21 22 23 23 23 23 24 24 24 23 23 23 23 23 23 23 22 21 21 22 22 22 22 23 24 25 25 25 25 25 25 25 25 25 25 25 24
12 11 10 9 8 7 10 14 18 22 24 23 24 24 24 23 22 22 24 26 26 25 26 28 29 27 24 22 23 24 22 22 22 23 23 23 22 22 22 22 22 23 23 23 22 22 21 21 21 22 23 23 23 24 24 24 24 24 24 24 24 24 24 24 23 22 22 23 23 23 23 24 24 25 25 25 25 25 24 25 25 25 25 25 25
13 11 9 8 8 8 9 11 14 18 20 20 21 22 23 23 22 22 24 26 26 26 27 28 29 26 22 21 22 23 23 23 24 24 24 23 23 23 23 22 23 23 24 23 22 21 20 20 21 23 23 24 24 24 24 24 24 24 24 24 24 24 24 24 23 23 23 23 24 24 24 24 24 24 25 25 25 25 25 25 26 26 26 25 25
13 11 9 9 9 9 10 11 13 15 17 18 20 22 23 24 23 23 24 26 27 27 28 28 29 26 23 22 22 23 24 25 26 25 24 23 23 23 23 23 23 24 24 23 22 21 19 20 22 24 24 24 24 24 24 24 24 24 23 23 24 24 24 23 23 23 22 22 23 23 24 24 24 25 25 26 27 27 26 26 27 27 25 24 24
13 11 10 9 10 10 10 12 14 15 16 17 18 19 21 22 23 24 25 27 28 28 28 28 28 27 25 23 23 25 26 27 26 26 24 23 24 24 24 24 24 24 24 22 21 21 20 21 24 25 24 24 24 25 24 24 24 24 23 23 24 24 24 24 24 23 22 22 23 23 25 26 26 27 28 28 28 29 28 28 28 27 25 24 25
12 12 11 10 10 9 10 12 14 16 17 17 17 17 17 20 23 23 24 27 29 29 29 28 27 27 26 24 24 26 27 27 27 25 24 24 24 24 24 25 24 24 23 22 21 21 21 22 24 24 24 24 25 25 25 25 25 25 24 24 24 25 26 26 25 24 23 23 24 25 26 28 29 29 30 30 30 29 29 29 28 28 27 25 25
13 12 11 11 10 10 11 12 13 15 16 17 17 17 16 18 21 22 23 25 27 30 30 29 27 26 25 24 25 26 27 28 27 26 24 24 24 23 24 24 23 22 22 22 22 22 22 22 23 24 24 24 25 25 26 26 26 26 25 25 25 26 26 27 27 26 26 26 27 27 28 29 30 31 31 31 31 30 30 29 28 28 27 26 26
13 12 11 11 10 10 11 11 12 13 15 18 18 17 16 17 19 21 23 25 26 29 31 29 26 25 24 24 25 26 27 28 28 26 25 25 24 23 23 23 22 22 22 22 22 22 23 23 24 24 25 25 26 26 27 27 26 26 26 26 26 26 26 27 28 28 28 28 28 29 29 30 31 31 31 31 32 32 31 30 29 28 27 26 26
13 12 11 11 10 10 10 9 9 9 12 16 19 18 17 17 17 20 23 24 23 27 31 31 28 26 24 24 25 26 27 28 28 26 26 26 25 23 23 23 23 23 24 24 24 24 24 25 25 26 26 27 27 27 27 27 27 27 27 27 27 27 27 27 27 27 27 28 29 29 30 30 31 31 31 31 31 32 32 31 30 29 28 27 28
13 13 12 11 11 10 9 8 8 7 7 10 14 18 19 20 19 20 22 23 23 27 30 31 29 27 25 25 26 27 27 27 27 27 27 27 26 24 23 23 24 25 26 26 26 26 26 26 27 28 28 29 29 29 28 28 28 28 29 29 28 27 27 28 28 29 30 30 30 30 31 31 31 31 31 32 32 32 31 30 30 31 32 33 33
14 14 13 12 11 9 9 8 8 7 5 4 7 12 15 18 20 21 22 23 24 27 29 29 28 26 26 26 26 27 27 27 27 27 27 27 27 26 24 24 25 26 27 28 28 28 28 28 28 28 28 28 27 27 27 27 27 27 27 26 26 26 27 28 29 30 31 31 30 31 32 33 32 32 31 32 33 33 32 32 34 36 37 38 38
14 14 14 13 12 10 9 8 8 9 7 5 8 12 13 16 19 20 21 22 24 26 28 29 27 26 26 27 27 27 28 28 28 28 28 28 28 27 25 25 26 27 28 29 29 29 29 28 28 27 27 27 27 28 28 28 28 26 26 26 28 29 29 29 30 31 31 31 30 31 32 32 31 31 32 32 33 34 34 35 36 38 38 39 39
15 14 14 14 14 12 10 9 8 9 9 9 12 15 14 15 19 22 21 21 23 28 29 29 28 26 26 27 27 27 29 29 29 29 29 30 29 27 26 25 25 26 27 28 27 27 28 27 27 27 28 29 31 32 32 32 32 30 30 32 33 32 32 33 34 34 33 31 30 31 31 30 29 30 31 33 33 34 35 35 35 37 37 38 39
16 16 15 15 15 15 14 13 12 11 11 12 15 15 14 14 16 19 22 23 25 28 30 30 30 27 26 28 29 29 30 31 30 29 30 29 28 27 26 26 26 26 27 28 28 28 29 29 28 29 30 31 34 35 35 36 36 37 37 37 36 36 36 36 36 35 34 33 31 31 31 32 32 32 32 34 34 35 36 36 37 37 38 39 41
18 18 18 17 17 17 17 17 16 15 14 15 15 16 16 15 14 16 20 24 27 30 30 31 32 32 30 29 29 31 32 31 30 29 28 28 28 28 27 26 26 27 29 30 30 31 32 33 33 32 32 33 34 35 35 36 37 38 39 38 39 40 40 38 37 35 34 33 33 34 36 37 37 36 36 36 36 36 37 38 39 40 41 42 43
20 20 19 19 20 19 18 18 18 17 17 17 17 17 17 17 16 16 16 17 22 28 29 29 30 32 32 31 31 32 32 30 30 30 29 28 28 29 28 28 28 30 31 30 30 31 31 34 35 36 36 36 36 36 36 37 38 39 39 40 40 40 40 39 38 35 34 34 33 36 40 40 38 37 38 38 38 39 40 41 42 43 44 45 46
22 21 21 21 22 22 21 20 20 19 19 19 19 19 19 19 19 20 18 16 16 20 25 27 26 27 29 30 31 31 30 28 27 28 29 32 32 30 29 28 29 30 29 28 30 34 35 35 35 35 35 36 36 36 35 36 37 38 39 39 38 37 36 37 37 37 37 36 34 35 37 39 39 40 40 40 41 42 43 43 44 45 46 47 47
25 24 23 22 22 23 23 23 23 22 22 22 22 22 21 21 21 21 20 18 15 15 20 24 24 24 26 26 24 23 22 22 22 21 24 29 33 33 31 30 30 30 30 31 35 39 39 37 35 34 33 34 35 34 33 33 34 36 36 36 35 34 34 35 35 36 37 37 36 37 38 40 41 42 43 43 44 44 44 44 45 45 46 47 48
27 26 26 25 23 23 23 24 24 24 24 24 24 25 24 24 23 22 20 18 16 14 15 16 17 18 20 20 19 19 20 22 22 21 20 23 27 30 31 31 31 32 34 36 38 38 37 36 35 34 33 33 34 33 33 33 33 34 34 34 34 34 35 35 36 37 37 38 39 40 41 42 43 44 45 45 45 44 44 44 44 45 46 47 49
28 27 27 26 25 25 25 25 25 26 26 26 26 26 26 26 25 24 21 19 19 19 19 18 18 18 19 19 20 21 22 24 24 24 22 22 24 25 27 29 31 33 36 38 37 35 35 34 34 34 33 33 33 34 34 34 35 35 35 36 36 37 37 38 38 39 40 41 41 42 42 43 43 44 43 43 43 43 43 43 44 46 47 49 51
31 30 29 28 28 28 28 28 28 27 27 27 28 28 27 27 27 26 25 22 21 22 24 25 25 24 22 22 22 22 22 23 24 24 25 25 25 25 26 29 32 34 36 36 34 33 33 32 33 33 33 34 35 35 36 37 37 37 38 38 38 39 39 40 40 41 42 42 43 43 42 42 41 41 41 41 42 43 43 45 46 48 49 51 53
31 31 31 30 30 31 31 31 30 30 29 29 29 30 30 30 29 29 29 27 25 24 24 26 27 27 26 26 26 26 26 26 26 26 27 28 28 28 28 30 32 33 32 32 32 32 33 33 34 34 34 35 36 36 37 38 38 38 39 39 40 40 41 41 42 42 43 43 43 42 41 41 40 40 41 42 43 44 45 47 48 50 51 53 54
32 31 30 31 31 32 32 32 32 31 31 31 32 32 33 33 33 32 32 31 29 28 27 26 27 28 29 29 29 30 30 29 29 29 28 27 27 28 30 32 33 33 33 34 35 35 36 36 37 37 37 37 37 38 38 38 39 39 40 41 41 41 41 41 41 42 42 42 41 40 40 40 40 41 42 43 44 45 47 48 50 51 52 54 56
36 36 36 35 36 36 36 37 36 36 35 35 34 34 34 35 35 34 34 32 32 32 31 29 28 28 28 29 29 30 32 32 32 31 30 29 29 29 32 34 36 36 37 38 38 39 39 38 38 38 39 39 39 40 40 40 40 40 40 40 40 40 40 40 41 41 41 40 40 40 40 41 41 42 43 44 45 47 48 49 51 52 54 56 58
38 38 38 38 38 38 39 40 41 41 40 38 37 36 36 35 34 34 34 33 33 34 35 33 30 29 29 30 30 31 32 34 34 34 34 34 32 30 31 35 39 40 41 41 41 41 40 39 38 38 39 39 39 39 39 40 40 40 40 40 40 40 40 40 40 40 40 40 40 41 41 41 42 43 44 46 47 48 49 51 53 55 57 58 60
36 37 36 36 35 35 36 38 40 41 41 40 38 37 37 36 36 36 36 37 37 38 38 38 36 35 36 36 36 36 34 34 35 37 38 39 38 35 35 37 40 42 42 42 42 41 40 38 38 38 38 38 39 39 39 40 41 41 41 41 40 40 39 39 40 40 40 41 41 41 41 42 44 45 46 47 48 50 51 53 55 56 58 60 62
34 35 35 34 33 33 33 34 36 39 40 40 39 38 38 38 38 38 38 38 38 39 40 40 39 38 38 37 37 38 38 37 37 38 40 42 43 42 42 41 41 41 42 43 42 42 41 40 40 40 40 40 40 40 40 40 41 41 41 40 40 40 40 40 40 41 40 40 40 41 43 44 45 46 47 48 50 51 52 54 56 57 60 62 64
31 32 32 33 33 32 32 32 33 34 36 36 36 36 36 37 37 37 38 37 37 37 37 38 37 37 36 35 36 38 40 39 38 39 39 39 40 41 41 41 41 41 42 43 44 44 44 43 42 41 40 40 40 40 40 40 40 40 40 40 40 40 40 40 40 40 41 41 42 43 44 45 46 47 48 49 51 52 53 55 57 59 61 63 65
32 32 32 32 32 33 33 34 34 34 34 35 35 34 35 35 35 36 37 37 38 37 36 36 36 36 36 37 38 40 40 39 39 39 39 39 39 39 39 39 40 42 43 44 44 44 44 43 42 41 41 41 41 41 41 41 40 40 40 40 40 40 40 41 41 42 42 43 44 44 45 46 47 48 49 50 52 53 55 57 59 61 62 64 65
35 36 36 35 35 35 36 37 38 38 37 37 36 36 35 34 33 34 35 36 36 36 36 35 35 36 37 37 38 39 39 40 40 40 40 40 39 39 39 40 40 41 42 42 43 43 43 43 43 43 43 43 43 42 42 41 41 41 41 41 41 41 41 42 42 43 43 44 44 45 46 47 48 49 50 51 53 55 56 58 60 61 62 62 62
39 39 39 40 40 40 41 42 42 43 42 41 40 39 37 36 36 38 39 39 39 39 39 39 40 41 42 43 43 43 44 44 44 44 44 43 43 43 43 43 43 42 42 42 43 43 44 44 44 44 44 44 43 43 43 42 42 42 42 42 42 42 42 42 43 43 43 44 44 45 46 47 48 49 51 52 54 55 57 58 60 60 60 59 58
42 43 43 44 44 44 45 45 46 46 47 46 46 45 44 43 43 44 45 46 46 46 46 46 46 46 46 47 48 49 49 50 50 50 50 50 49 48 48 47 47 46 46 46 46 45 45 45 45 44 44 43 43 42 42 42 42 42 42 41 41 42 42 42 42 42 43 44 45 46 47 47 48 50 51 53 54 55 57 58 58 58 57 56 54
40 41 42 44 45 46 47 47 48 48 49 49 49 49 48 48 48 49 50 50 51 52 52 52 51 50 49 49 49 49 50 50 49 49 50 50 49 49 48 47 47 46 46 46 45 45 44 43 43 42 42 41 41 40 40 40 40 40 40 40 40 40 41 41 42 43 43 44 45 45 46 47 48 50 51 52 53 55 56 56 56 55 53 51 49
35 36 37 38 40 42 44 45 47 48 48 49 49 49 49 49 48 49 49 49 50 51 52 52 52 52 51 51 50 49 49 49 48 48 47 47 47 47 47 47 46 46 45 44 44 43 42 41 40 40 39 39 38 38 38 38 38 38 38 39 39 40 41 41 42 42 43 43 44 45 46 46 47 49 50 51 52 53 54 53 52 51 49 47 44
27 28 30 31 33 34 36 38 41 43 45 46 46 47 47 47 47 47 48 48 48 48 49 49 49 49 50 50 50 49 49 48 48 47 47 47 47 47 47 47 47 46 46 44 43 41 40 39 38 38 37 37 37 37 37 37 37 37 37 38 39 40 40 40 40 40 41 41 42 43 44 45 46 48 49 50 51 51 51 50 48 46 44 42 40
21 22 24 25 26 28 29 31 34 37 40 42 43 44 45 45 45 46 47 48 48 49 49 48 47 46 46 47 48 48 48 48 48 48 47 47 47 47 47 47 47 46 45 44 42 41 39 38 37 36 36 36 35 35 35 36 36 36 36 37 38 38 38 38 38 39 39 40 41 42 43 44 45 46 47 48 49 48 47 45 44 42 40 38 36
20 21 22 22 23 24 26 27 28 30 33 36 39 42 44 45 45 46 46 47 48 49 50 49 49 48 47 46 46 47 47 47 47 46 46 45 45 45 45 44 44 43 42 41 40 38 37 36 35 35 35 34 34 34 34 35 35 35 35 35 35 35 35 36 37 38 38 39 40 41 42 43 43 44 45 46 45 44 43 41 39 38 36 35 34
21 21 21 22 22 23 24 25 26 27 28 30 31 34 36 39 42 44 45 45 46 47 48 49 49 49 49 48 47 46 46 46 45 45 44 43 42 42 41 41 40 39 38 37 36 35 35 34 34 34 34 34 33 33 34 34 34 34 34 33 33 34 34 35 36 36 37 38 38 39 40 40 41 42 42 42 41 40 38 37 36 35 34 33 32
23 23 23 23 23 23 24 25 25 26 27 28 28 29 30 31 33 35 37 38 40 41 43 44 46 47 47 47 46 45 44 43 43 43 42 41 40 39 38 37 37 36 35 34 33 33 33 32 32 32 32 32 33 33 33 32 32 32 31 32 32 33 33 33 34 34 35 35 36 37 37 38 39 39 38 38 37 36 35 34 33 32 32 31 31
25 25 25 25 24 24 24 25 25 26 26 27 27 28 29 29 29 30 31 32 33 34 36 37 38 40 41 42 42 41 41 40 39 39 38 38 37 36 35 34 33 33 32 32 31 31 31 31 31 31 31 31 31 31 30 30 29 29 30 30 31 31 31 31 32 32 32 33 34 34 35 35 35 35 34 34 33 33 32 31 31 31 30 30 30
25 26 27 27 27 26 26 25 25 26 26 27 27 28 28 28 28 29 29 29 30 31 32 33 33 33 34 35 36 36 36 35 35 34 34 33 33 32 32 31 31 30 30 30 29 29 29 30 30 30 29 29 28 28 27 27 28 28 28 29 29 28 28 28 29 29 29 30 31 31 32 32 32 31 31 31 31 30 30 30 29 29 29 29 29
25 26 27 28 28 28 28 28 27 26 26 26 26 27 28 28 28 28 28 28 29 30 30 31 31 31 31 31 31 31 31 31 31 31 31 30 30 30 29 29 29 29 28 28 28 28 28 28 28 27 27 26 26 26 26 26 26 26 26 26 26 26 26 26 26 26 26 27 27 28 28 28 29 29 29 29 28 28 28 28 28 28 28 27 27
25 26 27 28 29 30 30 30 30 29 28 27 26 26 27 28 28 28 28 28 28 29 29 30 30 30 30 29 29 29 29 29 29 29 29 29 28 28 28 28 28 28 27 27 27 27 26 26 26 26 25 25 25 25 25 25 24 24 24 24 24 24 24 24 24 24 25 25 25 25 26 26 26 27 27 27 27 27 27 27 27 27 27 26 26
26 27 28 29 30 31 31 32 32 31 31 30 28 27 26 26 27 28 28 28 28 27 28 28 29 29 30 29 28 28 28 28 28 28 28 28 28 28 27 27 27 27 26 26 26 26 25 25 25 25 25 24 24 24 24 23 23 23 22 22 22 22 23 23 23 24 24 25 25 25 25 25 25 26 26 26 25 25 25 25 26 26 26 26 26
27 27 28 29 30 31 32 33 33 33 33 32 31 30 29 27 26 27 28 28 28 27 27 27 28 28 29 29 28 28 28 28 28 28 27 27 27 27 26 26 26 26 26 26 26 25 25 24 24 24 24 24 23 23 23 22 22 22 22 22 22 22 22 23 23 23 24 24 25 24 24 24 25 25 25 25 25 25 25 25 25 25 25 25 25
27 28 29 30 31 32 33 34 35 35 35 34 34 33 32 30 28 27 27 28 28 28 26 26 26 27 27 28 28 27 27 27 27 27 26 26 26 25 25 25 25 25 25 25 25 25 24 24 24 24 23 23 23 23 23 22 22 22 22 22 22 22 22 22 22 23 23 24 24 24 24 24 24 24 25 25 25 24 24 24 24 24 25 25 25
28 28 29 30 31 32 33 34 35 35 36 36 35 35 34 33 31 29 27 27 28 28 27 26 25 25 25 25 26 26 26 26 26 26 26 25 25 25 24 24 25 25 25 25 25 25 24 24 24 23 23 23 23 23 22 22 22 22 22 22 22 22 22 22 22 23 23 23 23 24 23 23 23 24 24 24 24 24 24 24 24 24 24 24 24
Wind_Direction
260 254 270 274 261 236 223 221 225 234 238 233 229 226 223 221 224 232 236 233 230 226 221 219 221 226 229 229 231 232 232 231 230 231 231 232 234 235 238 240 242 244 247 250 254 257 259 260 261 262 261 258 256 254 254 254 255 257 259 260 262 263 266 267 267 268 269 268 268 268 269 269 270 270 270 270 270 270 272 273 274 274 273 273 272
257 256 280 280 261 233 220 219 221 225 228 227 225 225 224 222 225 232 232 231 231 227 222 221 221 225 232 234 234 233 231 231 231 233 233 234 237 239 241 243 244 246 248 250 253 256 258 259 259 259 258 256 254 253 254 255 257 260 261 263 265 266 268 269 269 270 270 269 270 271 271 270 270 270 269 269 269 270 271 272 272 272 272 271 271
265 260 270 268 258 242 229 227 227 226 224 225 228 230 228 227 230 235 231 226 228 226 223 224 226 227 231 234 235 233 231 231 233 235 237 239 240 241 242 245 247 250 251 252 254 255 257 258 258 257 255 254 254 254 255 257 259 260 262 264 266 267 268 268 269 269 270 271 273 273 272 271 271 270 269 268 268 268 268 268 268 268 267 267 268
276 264 258 252 254 247 238 237 236 232 228 229 233 235 234 233 236 240 233 224 223 224 223 225 228 228 228 231 235 236 234 233 236 239 242 243 244 244 245 247 250 252 254 255 255 256 257 257 256 255 254 254 254 255 257 258 260 261 263 265 267 266 265 265 266 268 270 271 271 270 270 270 270 269 268 268 267 266 265 265 264 264 265 266 268
288 279 265 257 263 255 239 235 233 232 231 231 234 235 234 234 235 236 232 223 222 224 224 225 227 225 224 228 235 239 237 236 238 242 243 244 244 245 246 248 251 253 254 255 256 256 256 254 253 253 254 255 256 258 260 261 262 264 264 265 264 262 260 261 263 264 266 266 266 266 267 268 267 267 267 266 264 263 263 263 263 264 265 266 267
295 293 279 266 274 268 240 228 224 225 228 230 233 233 230 228 228 228 226 221 222 226 228 227 225 223 225 231 237 240 240 241 242 242 241 240 241 242 244 247 250 253 254 255 255 255 254 253 253 255 256 257 259 261 263 265 267 267 267 265 263 261 261 262 264 266 267 267 267 266 265 264 264 263 263 263 262 261 262 263 264 264 264 264 265
299 299 290 276 275 266 244 232 225 223 226 231 235 235 231 229 230 228 224 221 222 228 232 228 221 222 232 239 239 240 241 243 244 242 239 239 239 240 243 246 250 253 254 254 255 255 254 256 257 257 258 259 261 263 265 267 268 268 268 268 267 265 265 267 269 271 272 272 271 269 266 263 262 261 260 261 261 260 261 262 263 263 264 266 267
297 301 298 289 285 273 252 240 234 229 229 232 235 236 235 235 234 232 227 222 223 228 230 224 219 225 239 243 238 238 241 243 242 240 238 238 240 242 245 249 252 253 253 254 254 255 255 256 257 258 260 262 264 265 266 266 267 268 270 270 269 268 268 268 269 271 272 273 273 271 270 267 265 263 262 262 264 264 263 263 263 264 264 266 267
290 295 293 289 289 286 268 251 243 237 235 236 238 237 236 234 233 232 229 223 224 228 225 219 223 233 242 239 234 236 241 243 241 238 238 239 242 245 248 250 252 252 253 253 255 257 258 257 258 261 263 264 265 266 267 266 266 267 268 268 267 266 266 266 267 268 271 273 275 275 274 272 270 267 266 265 266 268 268 267 267 267 266 265 265
287 291 289 283 281 281 275 262 252 244 240 241 240 236 233 231 230 231 228 224 226 229 224 220 229 237 237 233 233 238 243 245 243 240 240 243 246 248 248 249 251 252 253 254 256 259 259 260 261 263 263 264 265 266 266 267 267 268 267 265 264 262 262 263 265 268 271 275 278 278 277 275 274 273 272 272 272 272 272 271 270 269 268 266 266
284 288 288 283 276 274 274 270 261 253 244 240 238 235 232 231 228 227 227 228 229 227 223 224 231 234 233 233 236 242 246 248 247 244 243 246 248 250 250 250 251 251 253 255 257 258 258 259 261 261 261 263 264 264 265 266 267 267 267 265 264 263 264 265 267 270 273 276 278 280 280 279 277 276 276 276 276 275 274 273 270 269 268 267 265
283 288 291 288 279 271 272 271 266 259 249 239 237 236 233 230 228 226 228 232 234 228 224 225 227 229 235 240 243 247 248 248 249 247 245 247 248 250 252 253 253 254 256 256 255 255 257 259 259 260 260 261 261 262 263 264 265 265 265 264 263 264 266 267 269 271 273 276 279 280 280 280 279 278 276 276 275 274 273 272 269 268 268 267 265
284 289 294 293 284 272 271 275 275 272 258 243 237 235 233 230 230 233 232 232 233 229 224 224 226 231 241 246 248 250 249 247 248 248 248 250 251 251 253 254 255 256 256 255 255 256 259 261 262 262 261 262 262 263 264 264 263 264 264 264 264 266 268 270 270 270 272 276 278 278 278 278 277 277 275 274 274 273 271 269 267 266 267 269 271
283 287 291 295 292 283 279 283 286 289 281 257 241 236 235 233 233 238 238 235 236 235 227 223 227 234 242 247 248 250 249 246 247 249 250 252 254 255 255 254 254 253 253 253 253 256 259 262 263 263 263 262 262 263 263 262 260 260 261 263 265 268 270 270 270 270 271 273 275 275 276 276 275 274 273 272 272 271 269 268 267 269 272 274 276
280 284 287 291 294 290 282 280 279 278 279 279 263 249 239 236 237 240 239 236 241 244 235 226 226 231 237 244 247 248 248 246 245 247 249 252 255 257 256 254 251 250 250 251 252 255 259 261 262 263 264 264 264 264 263 261 261 261 259 260 265 270 271 269 269 270 272 273 273 273 273 273 273 272 270 268 267 267 267 269 272 274 277 279 279
277 279 282 285 288 287 279 274 274 272 262 253 269 269 253 239 240 244 242 237 243 249 241 231 229 231 234 241 245 247 249 248 245 245 248 251 254 257 257 254 252 251 252 253 255 257 260 261 261 263 265 266 267 267 266 265 266 263 258 261 270 274 273 272 272 273 274 275 274 272 271 271 271 269 268 266 266 266 266 268 270 273 275 277 278
275 274 275 277 279 279 277 275 276 275 263 245 256 271 267 247 240 241 239 236 240 247 245 237 234 235 238 242 245 247 249 248 246 246 247 249 253 256 254 251 250 251 252 253 255 259 262 263 262 263 267 270 270 269 268 268 268 266 264 269 273 274 273 273 275 275 274 273 271 269 269 271 270 269 269 270 270 270 270 270 272 274 276 278 279
273 273 272 271 271 271 273 277 278 276 267 254 253 264 270 262 252 246 240 237 241 247 247 241 237 238 242 245 246 248 248 247 245 245 246 248 251 252 252 252 251 250 249 248 247 251 256 258 259 262 267 270 271 270 269 269 269 270 272 275 277 277 275 273 272 272 272 271 269 269 271 273 272 273 275 275 275 276 276 277 279 280 282 283 283
271 272 272 271 270 269 270 274 276 275 272 267 261 263 264 264 268 266 252 242 240 243 244 242 238 237 241 246 248 250 249 247 245 245 245 247 248 248 248 249 249 248 247 248 248 249 251 253 255 258 262 264 266 268 269 269 269 269 271 274 276 277 277 275 274 273 272 272 271 269 268 269 271 275 279 281 281 281 282 283 283 283 283 283 283
272 271 273 273 273 272 270 271 273 273 274 275 272 271 270 266 267 273 269 255 245 241 239 239 237 237 241 244 246 250 254 254 253 252 249 245 245 246 245 245 248 251 253 256 258 258 259 258 257 258 260 262 264 267 267 266 265 264 266 268 269 270 271 271 271 270 271 273 271 265 262 265 271 276 278 279 280 281 282 282 283 284 285 286 287
274 273 273 273 274 275 273 271 271 270 270 273 273 272 274 273 270 272 277 280 272 255 245 241 238 238 241 244 246 250 256 260 260 259 254 246 242 243 246 248 253 256 259 263 268 269 269 266 263 261 260 260 262 265 265 263 261 261 262 265 267 267 268 267 267 267 269 272 273 268 266 269 274 276 277 278 279 281 282 284 285 286 288 289 290
274 275 275 275 275 276 276 275 275 273 271 271 272 271 271 272 272 274 276 280 282 273 257 250 245 241 244 249 252 254 258 260 259 258 254 247 242 243 247 247 247 250 258 266 269 269 268 266 264 263 261 259 260 263 264 262 260 261 262 265 267 269 270 269 269 269 271 272 273 273 272 274 276 278 280 282 283 284 285 286 287 288 289 290 290
272 273 273 274 273 274 275 277 278 279 278 275 273 273 273 273 272 274 276 275 273 266 258 251 245 243 247 252 255 260 264 265 262 259 256 252 247 247 249 248 246 251 261 266 265 264 263 264 264 264 262 261 262 264 265 265 264 265 266 268 270 271 272 271 271 271 272 272 272 273 274 276 278 280 281 283 284 285 286 287 288 289 289 290 291
272 270 269 270 271 272 274 275 276 277 278 277 275 272 272 273 274 274 272 269 263 259 259 259 258 261 264 263 262 264 265 263 262 260 259 256 253 252 254 253 253 255 257 258 259 262 263 264 264 263 263 263 264 265 266 268 268 269 270 271 272 273 273 272 272 272 273 273 273 274 275 276 277 278 280 281 283 284 286 287 287 288 289 290 291
270 268 267 269 271 273 274 275 274 273 272 272 273 272 270 270 271 272 271 268 262 258 259 262 264 266 266 262 261 262 261 259 259 259 259 260 260 258 257 255 254 252 251 252 255 257 259 259 260 261 261 263 265 266 267 269 270 271 273 273 274 274 274 274 274 275 275 275 275 275 276 276 278 279 281 282 284 284 285 286 287 289 290 291 292
267 265 266 268 270 272 273 274 273 272 271 269 268 268 268 267 266 267 268 268 266 262 258 258 261 263 261 259 260 260 259 257 256 256 259 262 263 261 256 251 249 247 247 249 252 255 260 265 268 268 269 270 270 271 271 272 274 275 275 275 275 275 274 274 274 274 274 275 275 276 277 279 281 282 282 283 284 285 287 288 290 291 292 293 294
261 261 263 267 270 272 272 272 270 270 271 269 267 265 265 265 265 265 266 267 268 267 263 260 259 260 261 261 261 260 259 257 256 256 257 256 254 251 249 247 245 244 245 249 254 260 268 274 276 276 277 277 276 276 276 277 277 277 276 275 273 273 272 272 272 273 274 275 276 278 279 280 281 282 283 284 286 288 289 291 292 293 294 295 296
261 261 262 265 268 270 271 270 269 269 270 269 267 265 263 262 262 263 264 266 267 267 267 266 263 260 259 259 258 256 255 254 254 254 253 251 250 251 253 253 251 250 252 256 261 266 272 275 276 277 278 278 278 278 277 277 276 274 272 271 270 270 271 272 273 274 276 277 278 279 280 280 281 282 284 286 288 289 291 292 293 295 296 297 298
264 265 265 265 266 267 267 268 268 268 267 266 265 263 261 260 258 258 260 262 263 264 265 265 261 258 256 255 253 253 254 255 254 253 252 252 253 256 261 263 262 261 261 263 266 269 272 274 274 274 274 274 274 273 273 273 272 271 270 270 271 273 274 275 276 276 277 278 278 279 280 281 282 284 286 288 290 291 293 295 296 298 299 299 300
262 264 264 264 263 262 263 263 263 264 264 263 261 260 259 257 256 257 259 260 260 260 261 261 259 257 257 256 253 253 255 256 257 256 253 251 249 248 250 257 263 266 267 269 270 271 271 270 269 268 268 267 268 268 269 269 269 270 271 272 274 275 276 277 277 278 278 278 279 279 281 283 285 287 289 291 293 295 296 298 299 300 301 301 301
262 262 263 263 263 261 259 257 257 258 260 261 261 260 259 259 259 259 260 260 259 258 259 260 260 260 261 260 260 259 259 258 258 259 258 257 255 253 252 255 260 263 264 265 266 267 267 266 265 265 265 266 267 268 268 269 269 270 272 273 275 276 277 277 278 278 278 279 280 281 283 285 287 289 292 294 295 297 298 299 300 300 301 301 301
270 270 270 270 270 269 267 264 260 258 258 259 259 260 260 260 259 259 258 257 256 256 257 258 258 258 257 256 256 259 260 260 259 260 261 260 260 261 260 261 262 262 262 262 263 264 264 264 264 265 266 266 267 268 269 270 271 272 274 275 276 277 277 277 278 278 279 280 281 283 285 287 289 291 293 295 296 297 298 299 300 300 300 300 300
273 273 273 273 273 272 272 272 270 269 267 266 264 263 262 261 261 261 261 259 258 259 260 260 260 260 260 258 258 260 263 264 263 263 264 263 263 263 263 264 264 264 265 265 265 265 265 265 266 266 266 267 269 271 272 273 274 275 275 276 277 277 277 278 278 278 279 281 282 284 287 290 291 293 294 295 297 298 299 300 300 300 300 300 300
268 268 268 267 266 265 264 265 265 266 267 267 266 266 266 263 260 260 261 259 259 260 262 262 261 261 261 261 261 262 264 265 265 266 267 268 268 269 269 268 268 267 267 267 266 266 266 265 265 266 267 269 271 273 273 274 275 276 276 277 277 277 277 277 278 279 281 283 285 288 290 291 292 294 295 297 299 300 300 301 301 301 301 301 301
266 265 264 262 261 260 259 259 259 259 259 259 258 258 258 256 252 250 250 249 249 250 253 256 258 258 257 257 257 258 259 260 261 262 264 265 267 268 268 268 267 266 265 264 264 263 263 264 265 266 268 270 271 272 273 274 275 276 276 276 276 276 277 278 279 281 283 286 288 290 291 292 294 296 297 299 300 300 301 301 301 302 302 302 301
267 266 264 263 262 260 260 260 259 259 259 258 256 255 253 252 251 250 250 250 251 253 256 258 259 259 259 258 258 259 259 259 260 261 262 263 265 266 266 265 264 264 263 263 263 264 264 265 266 267 269 270 271 272 274 274 274 274 274 275 276 277 279 280 282 284 287 288 289 290 292 294 296 297 299 299 300 300 301 302 302 302 302 302 301
270 268 267 266 264 263 262 261 261 261 261 261 260 259 257 256 255 255 256 257 258 260 262 262 262 261 260 260 260 260 261 262 262 263 264 265 266 266 266 266 265 265 264 264 265 265 266 266 267 269 270 271 272 273 273 273 274 274 275 277 278 280 282 283 285 286 287 288 290 292 294 296 297 299 299 300 301 301 302 303 303 302 302 302 301
278 276 274 272 270 268 266 265 263 263 263 262 262 262 261 260 260 260 260 261 262 262 263 264 264 263 263 263 262 262 263 263 264 264 265 265 266 267 266 266 265 265 264 264 265 266 267 268 269 270 271 272 273 273 274 274 275 277 278 280 281 282 283 284 285 286 288 290 293 295 296 297 298 299 300 301 302 303 303 303 303 302 302 301 301
292 289 287 285 283 280 277 274 271 269 267 266 264 264 263 263 262 262 262 262 263 263 263 264 264 264 264 264 264 264 264 264 264 264 265 265 266 266 266 265 265 264 264 264 265 266 268 269 270 271 272 272 273 274 275 276 277 279 280 281 281 282 283 284 286 288 291 293 294 295 296 298 299 300 301 302 303 304 304 303 302 302 301 300 299
312 308 304 300 297 293 289 285 281 277 273 270 268 267 266 266 265 264 263 263 263 263 263 263 262 262 262 262 262 263 263 263 264 264 264 264 264 264 264 264 264 264 264 265 266 267 268 269 271 271 272 272 273 274 275 276 277 278 279 279 280 282 284 286 288 290 291 293 294 296 297 299 300 301 303 304 304 304 303 302 301 300 299 299 298
327 324 320 316 311 306 301 296 292 288 283 278 274 271 269 267 267 266 266 265 265 265 265 264 264 263 263 262 262 261 261 262 263 263 264 264 264 264 264 264 264 265 265 265 266 267 268 269 270 270 271 272 273 274 275 275 276 277 278 280 282 284 286 287 288 290 292 294 296 298 299 301 303 305 305 305 304 303 302 301 300 300 299 299 300
335 332 329 326 321 317 312 308 303 299 295 291 286 281 277 273 271 270 269 269 268 268 268 267 266 266 266 266 266 265 264 264 264 265 265 266 266 266 266 266 266 266 266 266 266 266 267 267 268 269 270 271 272 273 273 274 275 277 279 281 282 283 285 287 289 292 295 297 299 301 303 305 306 306 306 304 303 302 301 301 301 301 302 302 302
344 340 336 333 329 324 320 315 312 308 304 300 296 292 288 284 280 277 275 275 274 273 272 271 269 268 268 269 270 270 270 269 269 269 269 269 269 270 269 269 268 268 267 267 266 266 267 267 268 269 269 270 270 271 272 273 275 277 278 280 281 283 286 289 292 295 298 300 303 305 306 307 307 306 304 303 302 302 302 303 303 304 304 304 304
350 346 343 339 336 332 327 323 318 314 310 306 303 299 295 291 287 284 282 280 279 277 276 274 273 272 271 271 272 272 273 273 273 272 272 272 272 271 270 269 268 267 266 266 265 265 266 266 267 267 268 268 268 269 270 272 274 275 277 279 282 286 290 293 297 299 302 305 307 308 308 308 307 305 304 304 304 304 304 305 305 305 305 305 305
352 349 346 343 340 337 334 330 326 321 316 311 307 304 301 297 292 288 284 282 281 280 279 277 276 274 273 272 271 271 272 272 273 272 272 271 270 269 268 267 266 265 264 264 264 264 264 264 264 265 265 266 266 267 268 270 272 275 278 282 286 290 294 298 301 303 306 308 309 309 309 308 307 307 306 306 306 306 306 307 307 307 307 307 307
348 347 346 344 342 340 338 336 333 330 325 319 313 308 304 301 298 294 289 284 281 280 280 279 278 276 275 273 272 270 269 268 268 267 267 267 266 265 265 264 263 263 262 262 262 262 262 262 262 262 262 262 263 265 267 270 273 276 280 285 289 293 297 300 302 304 306 307 308 309 309 309 310 310 310 309 309 308 309 309 309 309 309 310 310
343 343 343 342 342 340 339 338 337 335 333 329 323 316 309 304 301 299 295 290 285 282 280 280 279 278 276 274 272 270 268 266 264 263 262 261 261 261 260 260 260 260 260 260 260 260 260 260 259 258 258 259 261 264 267 270 274 278 282 287 291 295 298 299 300 301 302 303 305 307 310 313 314 314 314 313 312 312 312 312 312 312 312 312 312
340 339 339 340 340 339 338 338 337 336 336 334 332 327 320 312 305 301 298 295 290 285 281 279 279 278 277 275 273 271 268 266 264 262 261 260 259 259 259 258 258 258 258 258 258 258 257 256 255 255 256 258 261 263 266 270 274 278 283 288 292 295 296 297 298 298 298 299 301 305 309 314 317 318 318 317 317 316 315 315 315 314 314 314 314
338 337 337 337 337 337 337 336 336 336 335 335 334 332 328 322 314 306 301 297 294 289 284 280 278 278 277 275 273 271 269 267 265 263 262 260 259 258 258 258 258 258 258 257 256 254 253 252 252 253 256 258 260 263 266 270 274 279 283 287 291 294 296 297 297 297 297 297 298 301 306 312 317 320 321 321 320 320 319 319 319 319 319 318 317
336 336 335 335 335 335 335 335 334 334 334 334 334 334 332 328 322 314 305 299 296 293 289 284 280 279 279 277 274 272 270 268 266 264 262 261 259 258 257 257 257 256 256 255 253 251 250 249 251 253 256 258 260 263 266 269 274 278 282 286 290 293 296 297 298 298 298 298 298 300 303 309 314 319 322 323 323 323 323 323 323 323 323 322 322
334 334 333 333 333 333 333 333 333 333 333 333 333 333 332 330 326 320 312 304 299 296 293 289 284 281 281 280 278 274 272 270 268 266 263 261 260 258 256 256 255 254 254 252 250 248 247 248 250 253 255 257 259 262 265 269 273 277 281 285 288 292 295 298 299 300 300 300 299 300 303 306 311 317 320 323 324 325 326 326 326 326 326 326 326
Height
5736 5735 5735 5734 5734 5735 5737 5738 5740 5743 5745 5744 5743 5744 5746 5748 5749 5751 5753 5754 5755 5756 5758 5759 5761 5763 5764 5765 5766 5768 5770 5771 5772 5773 5774 5775 5775 5776 5777 5777 5778 5778 5779 5780 5781 5782 5782 5783 5784 5784 5785 5785 5786 5786 5787 5787 5787 5787 5787 5787 5787 5787 5787 5788 5788 5789 5789 5789 5789 5789 5789 5788 5788 5788 5787 5787 5786 5786 5786 5786 5786 5786 5786 5786 5786
5734 5734 5732 5732 5732 5732 5733 5735 5736 5738 5740 5740 5741 5742 5743 5745 5746 5748 5750 5751 5752 5753 5755 5756 5758 5760 5762 5764 5765 5766 5768 5769 5770 5771 5771 5772 5773 5773 5774 5775 5775 5776 5777 5778 5778 5779 5780 5781 5782 5783 5783 5783 5784 5784 5784 5785 5785 5785 5785 5785 5785 5785 5785 5786 5786 5787 5787 5787 5787 5787 5787 5786 5786 5785 5785 5784 5784 5784 5784 5784 5783 5783 5783 5783 5783
5733 5732 5730 5730 5731 5731 5731 5733 5734 5735 5737 5738 5739 5740 5742 5743 5744 5746 5747 5749 5749 5751 5753 5755 5757 5759 5761 5762 5763 5765 5766 5767 5767 5768 5769 5770 5771 5771 5772 5772 5773 5774 5775 5775 5776 5777 5778 5779 5780 5780 5780 5781 5781 5782 5782 5782 5782 5782 5782 5782 5783 5783 5783 5783 5784 5784 5785 5785 5785 5785 5784 5784 5784 5783 5783 5782 5782 5781 5781 5781 5781 5781 5781 5781 5781
5732 5730 5729 5728 5728 5728 5729 5731 5732 5734 5735 5736 5737 5739 5741 5742 5744 5745 5746 5747 5748 5749 5751 5753 5755 5757 5758 5760 5761 5763 5764 5765 5765 5766 5766 5767 5768 5769 5770 5771 5771 5772 5773 5774 5774 5775 5776 5777 5777 5777 5777 5778 5779 5779 5779 5779 5780 5780 5780 5779 5780 5780 5780 5781 5781 5782 5782 5782 5782 5782 5782 5781 5781 5781 5780 5780 5779 5779 5779 5778 5778 5778 5778 5778 5779
5731 5729 5728 5727 5726 5726 5727 5728 5730 5731 5733 5734 5735 5737 5739 5741 5742 5743 5744 5745 5747 5748 5750 5751 5753 5755 5756 5758 5759 5760 5762 5763 5763 5764 5765 5765 5766 5767 5768 5769 5770 5770 5771 5771 5772 5773 5773 5774 5774 5774 5775 5776 5776 5776 5776 5776 5777 5777 5777 5777 5777 5777 5777 5778 5778 5779 5779 5779 5779 5779 5778 5778 5778 5778 5777 5777 5776 5776 5776 5776 5775 5776 5776 5776 5776
5730 5729 5728 5727 5726 5725 5726 5726 5727 5729 5730 5732 5733 5734 5736 5738 5740 5740 5741 5743 5745 5747 5748 5749 5751 5753 5755 5756 5757 5758 5759 5760 5761 5762 5763 5763 5764 5765 5766 5766 5767 5768 5768 5769 5769 5770 5770 5771 5771 5772 5772 5773 5774 5774 5774 5774 5774 5774 5774 5774 5774 5774 5774 5775 5775 5776 5776 5776 5775 5775 5775 5775 5775 5774 5774 5773 5773 5773 5773 5773 5773 5773 5773 5773 5773
5729 5728 5727 5726 5725 5725 5725 5726 5727 5728 5729 5731 5732 5733 5735 5737 5737 5738 5738 5740 5743 5744 5745 5747 5749 5751 5753 5754 5755 5756 5757 5758 5758 5759 5760 5760 5761 5762 5763 5764 5764 5765 5765 5766 5767 5767 5768 5769 5769 5769 5769 5770 5770 5771 5771 5771 5771 5771 5772 5772 5772 5772 5772 5773 5773 5773 5773 5773 5773 5772 5772 5772 5772 5771 5770 5770 5769 5769 5770 5770 5769 5769 5769 5769 5769
5728 5727 5727 5726 5725 5725 5725 5726 5727 5728 5728 5729 5730 5731 5733 5734 5735 5736 5737 5738 5739 5741 5743 5745 5747 5749 5750 5751 5752 5753 5754 5755 5755 5755 5756 5757 5757 5758 5760 5761 5761 5762 5763 5764 5764 5765 5766 5766 5766 5765 5765 5766 5767 5768 5769 5769 5769 5769 5769 5770 5770 5770 5770 5770 5770 5770 5770 5769 5769 5769 5769 5769 5769 5769 5768 5767 5767 5766 5767 5766 5766 5766 5766 5766 5766
5727 5726 5726 5726 5725 5725 5725 5725 5726 5727 5727 5728 5728 5729 5730 5732 5733 5734 5735 5736 5737 5738 5740 5743 5746 5747 5748 5748 5749 5750 5751 5752 5752 5752 5753 5753 5754 5755 5756 5757 5758 5759 5760 5761 5762 5763 5763 5763 5763 5763 5763 5764 5764 5765 5766 5766 5766 5767 5767 5767 5767 5767 5767 5767 5767 5767 5766 5766 5766 5766 5765 5765 5765 5765 5765 5765 5764 5764 5764 5763 5763 5762 5763 5763 5762
5726 5725 5725 5725 5725 5724 5724 5724 5724 5725 5725 5726 5726 5727 5728 5729 5730 5731 5732 5733 5735 5736 5739 5741 5743 5744 5745 5746 5747 5748 5748 5749 5749 5749 5750 5750 5751 5752 5753 5754 5756 5756 5757 5758 5759 5760 5760 5760 5760 5761 5761 5761 5761 5762 5762 5763 5763 5764 5764 5764 5764 5764 5764 5764 5764 5764 5763 5763 5762 5762 5762 5761 5761 5762 5761 5761 5761 5761 5761 5760 5760 5759 5759 5759 5758
5725 5724 5724 5724 5724 5723 5723 5723 5722 5723 5723 5723 5724 5725 5726 5726 5727 5728 5730 5731 5733 5734 5737 5739 5740 5742 5742 5743 5744 5745 5746 5746 5746 5747 5747 5748 5749 5750 5751 5752 5753 5754 5755 5756 5756 5756 5757 5757 5757 5758 5758 5758 5759 5759 5759 5760 5760 5761 5761 5762 5762 5762 5761 5761 5761 5760 5760 5760 5759 5759 5758 5758 5757 5757 5757 5757 5757 5757 5757 5757 5757 5756 5755 5755 5754
5724 5723 5723 5722 5722 5722 5722 5721 5721 5721 5721 5720 5721 5723 5724 5725 5725 5726 5727 5729 5730 5732 5734 5736 5737 5738 5739 5740 5741 5742 5743 5743 5743 5744 5744 5745 5746 5747 5748 5750 5751 5752 5752 5753 5753 5753 5754 5754 5755 5755 5755 5755 5755 5756 5756 5757 5757 5757 5758 5758 5758 5758 5758 5758 5757 5757 5757 5756 5756 5755 5755 5754 5754 5753 5753 5753 5753 5752 5752 5753 5753 5752 5752 5751 5750
5723 5722 5722 5721 5721 5721 5720 5720 5719 5719 5718 5717 5719 5720 5722 5723 5724 5724 5725 5726 5727 5729 5731 5732 5734 5735 5736 5737 5738 5739 5740 5740 5740 5741 5741 5742 5743 5745 5746 5747 5748 5749 5749 5749 5750 5750 5751 5751 5752 5752 5752 5752 5752 5752 5752 5753 5753 5754 5754 5754 5755 5755 5755 5754 5754 5754 5753 5753 5752 5752 5752 5751 5750 5750 5750 5749 5749 5748 5748 5748 5748 5748 5747 5746 5746
5722 5721 5721 5720 5719 5719 5719 5718 5718 5717 5716 5716 5717 5718 5719 5720 5722 5722 5723 5724 5724 5725 5726 5728 5730 5732 5733 5734 5735 5736 5737 5738 5738 5738 5739 5740 5741 5743 5743 5744 5744 5745 5745 5746 5746 5747 5748 5748 5748 5748 5749 5749 5749 5749 5749 5749 5750 5750 5750 5751 5751 5751 5751 5751 5750 5750 5750 5749 5749 5749 5748 5748 5747 5746 5746 5745 5745 5744 5744 5743 5743 5743 5742 5741 5741
5721 5720 5720 5719 5718 5718 5717 5717 5716 5716 5716 5716 5716 5717 5717 5718 5719 5720 5720 5721 5721 5722 5723 5725 5726 5727 5729 5730 5732 5733 5733 5734 5734 5735 5736 5737 5739 5740 5740 5740 5741 5741 5742 5742 5743 5744 5745 5745 5745 5745 5745 5746 5746 5745 5745 5745 5746 5746 5746 5747 5747 5747 5747 5746 5746 5746 5746 5746 5745 5745 5744 5744 5743 5743 5742 5741 5741 5740 5740 5740 5739 5738 5737 5736 5736
5720 5719 5719 5718 5718 5717 5716 5716 5715 5715 5715 5715 5716 5716 5716 5716 5717 5717 5717 5718 5718 5719 5720 5722 5722 5724 5725 5727 5728 5729 5730 5730 5731 5732 5733 5734 5735 5736 5737 5737 5737 5737 5738 5739 5740 5741 5741 5741 5741 5741 5742 5742 5742 5742 5742 5742 5742 5742 5742 5743 5743 5742 5742 5742 5741 5741 5741 5741 5741 5740 5739 5739 5738 5738 5737 5737 5737 5736 5736 5736 5736 5734 5733 5732 5731
5718 5717 5717 5717 5716 5716 5715 5715 5715 5714 5714 5714 5714 5714 5714 5714 5714 5714 5714 5715 5716 5716 5717 5718 5719 5721 5722 5723 5725 5726 5726 5726 5727 5728 5729 5731 5732 5733 5734 5734 5734 5734 5734 5735 5736 5737 5737 5737 5738 5738 5738 5738 5737 5737 5737 5737 5738 5738 5738 5738 5738 5738 5737 5736 5736 5736 5736 5736 5735 5734 5734 5734 5733 5733 5732 5732 5732 5731 5731 5731 5731 5730 5729 5727 5726
5715 5715 5715 5715 5715 5714 5714 5714 5713 5713 5713 5713 5712 5711 5711 5711 5711 5712 5712 5713 5713 5713 5714 5716 5717 5718 5719 5720 5721 5722 5722 5722 5723 5725 5726 5727 5729 5730 5730 5730 5731 5731 5731 5731 5732 5732 5732 5732 5733 5733 5734 5733 5733 5732 5732 5732 5732 5733 5733 5733 5732 5732 5732 5731 5731 5730 5730 5730 5729 5729 5729 5729 5728 5728 5727 5727 5726 5726 5725 5725 5724 5724 5723 5722 5720
5713 5713 5713 5713 5712 5712 5712 5712 5712 5711 5711 5711 5710 5710 5709 5709 5709 5709 5709 5709 5709 5709 5710 5712 5714 5714 5715 5716 5717 5718 5718 5719 5720 5721 5722 5724 5725 5726 5727 5728 5728 5728 5727 5728 5728 5728 5728 5728 5728 5729 5729 5728 5728 5728 5728 5728 5728 5728 5727 5727 5727 5726 5726 5726 5726 5726 5725 5725 5724 5724 5723 5723 5723 5723 5722 5722 5721 5720 5720 5719 5718 5717 5716 5715 5714
5710 5710 5711 5710 5710 5710 5710 5710 5710 5710 5709 5709 5708 5708 5707 5707 5706 5706 5706 5707 5707 5707 5707 5708 5709 5710 5711 5713 5714 5714 5714 5716 5717 5718 5719 5720 5721 5721 5722 5723 5723 5723 5723 5724 5724 5724 5725 5725 5725 5724 5724 5724 5724 5724 5724 5723 5723 5723 5723 5723 5722 5722 5721 5721 5721 5721 5721 5720 5719 5719 5718 5718 5718 5718 5717 5716 5715 5715 5714 5712 5711 5710 5709 5707 5706
5707 5707 5708 5708 5708 5707 5708 5708 5707 5708 5707 5707 5706 5706 5705 5705 5704 5704 5704 5704 5705 5705 5705 5706 5707 5707 5708 5709 5710 5711 5712 5713 5713 5714 5715 5716 5716 5717 5717 5717 5718 5718 5718 5719 5719 5719 5720 5720 5720 5720 5720 5719 5719 5719 5719 5719 5719 5719 5718 5718 5718 5717 5717 5717 5717 5717 5716 5716 5715 5714 5714 5713 5713 5712 5711 5710 5709 5708 5707 5706 5705 5703 5702 5700 5699
5705 5704 5704 5705 5705 5705 5705 5705 5705 5705 5705 5704 5704 5703 5703 5703 5702 5702 5702 5702 5703 5703 5703 5704 5705 5705 5706 5707 5708 5709 5709 5709 5709 5709 5710 5710 5711 5712 5712 5713 5714 5714 5715 5715 5715 5715 5715 5715 5715 5715 5715 5714 5714 5714 5714 5714 5714 5714 5714 5714 5714 5714 5713 5713 5713 5712 5712 5711 5710 5710 5709 5708 5707 5705 5704 5704 5703 5702 5701 5700 5698 5697 5696 5694 5693
5702 5702 5701 5702 5702 5702 5702 5702 5702 5702 5702 5702 5701 5701 5700 5700 5699 5699 5700 5700 5701 5701 5701 5701 5702 5703 5704 5705 5705 5705 5705 5706 5706 5706 5706 5706 5707 5707 5708 5709 5710 5710 5711 5711 5711 5710 5711 5711 5710 5710 5710 5710 5710 5710 5710 5710 5710 5710 5710 5710 5709 5709 5709 5709 5708 5708 5707 5706 5705 5704 5704 5702 5701 5700 5699 5698 5697 5696 5695 5694 5693 5691 5689 5688 5686
5699 5699 5699 5699 5699 5699 5699 5699 5699 5699 5699 5698 5698 5698 5698 5697 5696 5696 5697 5698 5698 5699 5699 5699 5700 5700 5701 5702 5702 5702 5702 5702 5702 5702 5702 5703 5703 5703 5704 5704 5705 5706 5706 5706 5706 5706 5706 5706 5706 5706 5705 5705 5705 5705 5705 5705 5705 5705 5705 5705 5705 5704 5704 5704 5703 5702 5701 5701 5700 5699 5699 5698 5696 5695 5694 5693 5692 5691 5690 5688 5687 5685 5684 5682 5680
5696 5696 5696 5696 5696 5696 5696 5696 5696 5696 5696 5695 5695 5695 5695 5694 5694 5693 5693 5694 5695 5695 5696 5696 5697 5697 5698 5698 5698 5699 5699 5699 5699 5699 5699 5699 5699 5700 5700 5700 5701 5701 5701 5701 5702 5702 5702 5702 5702 5702 5701 5701 5700 5700 5700 5701 5701 5701 5700 5700 5699 5699 5699 5698 5697 5696 5696 5695 5694 5693 5693 5692 5691 5689 5688 5687 5686 5685 5684 5683 5681 5679 5678 5675 5673
5692 5692 5692 5692 5692 5692 5692 5692 5692 5692 5692 5693 5692 5691 5691 5691 5691 5690 5690 5690 5691 5691 5692 5692 5693 5693 5694 5695 5695 5695 5695 5695 5696 5696 5696 5696 5696 5696 5696 5697 5697 5697 5697 5697 5697 5697 5697 5697 5697 5697 5697 5696 5696 5696 5695 5695 5695 5695 5695 5694 5694 5694 5693 5692 5692 5691 5690 5689 5689 5688 5687 5686 5685 5684 5683 5681 5680 5679 5678 5676 5675 5673 5671 5669 5666
5688 5688 5688 5688 5688 5688 5688 5688 5688 5688 5688 5688 5688 5688 5688 5687 5686 5686 5686 5686 5686 5687 5688 5688 5689 5689 5690 5690 5691 5691 5691 5691 5691 5691 5692 5692 5692 5691 5692 5692 5692 5693 5693 5693 5693 5693 5692 5692 5692 5692 5691 5691 5691 5690 5690 5690 5690 5689 5689 5688 5688 5688 5687 5687 5686 5685 5684 5684 5683 5682 5681 5680 5679 5678 5677 5676 5675 5673 5671 5670 5668 5666 5663 5661 5658
5684 5684 5684 5684 5684 5684 5683 5683 5683 5683 5683 5683 5683 5684 5684 5683 5683 5682 5682 5682 5682 5682 5683 5684 5685 5685 5685 5686 5686 5686 5686 5686 5686 5687 5688 5688 5687 5687 5687 5687 5688 5688 5688 5688 5688 5688 5687 5687 5686 5686 5686 5686 5685 5685 5685 5684 5684 5683 5683 5683 5682 5682 5681 5681 5680 5679 5679 5678 5677 5676 5675 5674 5673 5672 5671 5670 5669 5667 5665 5663 5661 5658 5656 5653 5650
5678 5678 5679 5679 5679 5679 5679 5678 5678 5678 5678 5679 5678 5678 5678 5679 5679 5679 5678 5678 5678 5678 5678 5679 5679 5680 5681 5681 5681 5681 5681 5681 5681 5682 5683 5683 5683 5683 5683 5682 5682 5683 5683 5683 5682 5682 5682 5681 5681 5681 5681 5681 5680 5680 5679 5679 5678 5678 5678 5677 5677 5676 5675 5675 5674 5673 5673 5672 5671 5670 5669 5668 5667 5666 5665 5663 5662 5660 5658 5655 5653 5650 5647 5645 5642
5673 5673 5673 5673 5673 5673 5673 5673 5673 5672 5673 5673 5673 5673 5673 5674 5674 5674 5674 5674 5674 5674 5673 5673 5674 5674 5675 5675 5675 5676 5676 5676 5676 5676 5677 5677 5677 5678 5678 5678 5677 5677 5677 5677 5676 5676 5676 5676 5676 5676 5675 5675 5675 5674 5674 5674 5673 5673 5672 5671 5670 5670 5669 5669 5668 5667 5667 5666 5665 5664 5663 5662 5660 5659 5658 5656 5654 5652 5650 5647 5645 5642 5639 5637 5634
5668 5667 5667 5667 5667 5667 5667 5667 5667 5668 5668 5668 5668 5668 5668 5668 5669 5669 5669 5669 5669 5668 5668 5668 5668 5668 5669 5669 5670 5670 5670 5670 5670 5670 5670 5671 5671 5672 5672 5673 5672 5672 5672 5671 5671 5670 5670 5670 5670 5670 5669 5669 5669 5668 5668 5668 5667 5666 5666 5665 5664 5664 5663 5662 5662 5661 5660 5660 5659 5658 5657 5655 5654 5652 5651 5649 5647 5645 5643 5640 5638 5635 5633 5630 5627
5662 5662 5662 5662 5661 5661 5661 5662 5662 5663 5663 5663 5663 5663 5663 5663 5663 5663 5663 5663 5663 5663 5662 5662 5662 5662 5663 5664 5664 5664 5663 5664 5664 5664 5664 5664 5665 5666 5666 5666 5666 5666 5665 5665 5665 5664 5664 5664 5664 5663 5663 5662 5662 5662 5662 5661 5661 5660 5660 5659 5658 5658 5657 5656 5656 5655 5655 5654 5653 5652 5650 5649 5647 5646 5644 5642 5640 5638 5636 5634 5631 5629 5626 5623 5620
5657 5657 5657 5657 5657 5656 5656 5656 5657 5657 5657 5658 5658 5658 5658 5658 5658 5658 5658 5658 5657 5657 5657 5656 5656 5656 5656 5657 5657 5657 5657 5657 5657 5657 5657 5658 5659 5659 5660 5660 5659 5659 5659 5659 5659 5658 5658 5658 5657 5657 5656 5656 5656 5656 5655 5655 5655 5654 5654 5653 5653 5652 5651 5651 5650 5649 5649 5648 5647 5646 5644 5642 5640 5639 5637 5635 5633 5631 5629 5626 5624 5622 5619 5616 5613
5652 5652 5652 5652 5652 5652 5651 5651 5652 5652 5652 5652 5652 5652 5652 5653 5653 5653 5652 5652 5652 5652 5652 5652 5652 5652 5651 5651 5651 5651 5651 5651 5651 5650 5650 5651 5651 5652 5653 5653 5653 5653 5653 5653 5652 5652 5652 5652 5651 5651 5650 5650 5650 5649 5649 5649 5648 5648 5648 5647 5647 5646 5646 5645 5644 5643 5642 5641 5640 5639 5637 5636 5634 5632 5630 5629 5626 5624 5622 5620 5618 5615 5612 5609 5605
5647 5647 5647 5647 5646 5646 5646 5646 5646 5646 5646 5647 5647 5647 5647 5647 5647 5647 5647 5646 5646 5646 5646 5646 5647 5647 5647 5646 5646 5646 5646 5646 5645 5645 5645 5644 5645 5645 5645 5646 5646 5646 5646 5646 5646 5646 5646 5645 5645 5644 5644 5644 5643 5643 5643 5643 5642 5642 5642 5641 5641 5640 5640 5639 5638 5637 5636 5635 5634 5632 5631 5629 5627 5626 5624 5622 5620 5618 5616 5614 5611 5608 5605 5602 5598
5641 5641 5641 5640 5640 5640 5639 5639 5639 5639 5639 5639 5640 5641 5641 5641 5641 5640 5639 5639 5639 5639 5639 5639 5640 5641 5641 5640 5639 5639 5639 5639 5639 5639 5639 5638 5638 5639 5639 5639 5639 5639 5639 5639 5639 5639 5639 5639 5638 5638 5638 5638 5637 5637 5637 5637 5636 5636 5636 5635 5635 5634 5634 5633 5632 5631 5630 5629 5627 5626 5624 5623 5621 5619 5617 5616 5614 5612 5610 5607 5604 5601 5598 5595 5592
5634 5634 5634 5633 5633 5633 5632 5632 5631 5631 5631 5631 5632 5633 5633 5633 5633 5632 5632 5631 5631 5630 5631 5631 5632 5633 5634 5633 5633 5632 5632 5632 5632 5632 5632 5632 5632 5632 5632 5632 5632 5632 5632 5632 5632 5632 5632 5632 5632 5631 5631 5631 5631 5631 5631 5631 5630 5630 5630 5629 5629 5628 5627 5626 5626 5625 5624 5622 5621 5619 5618 5616 5614 5613 5611 5609 5608 5606 5603 5601 5598 5594 5591 5588 5586
5628 5627 5627 5626 5626 5626 5625 5625 5624 5624 5624 5624 5624 5625 5625 5625 5625 5625 5624 5624 5623 5623 5623 5624 5625 5625 5626 5626 5626 5626 5625 5625 5625 5625 5625 5626 5626 5625 5625 5626 5626 5626 5626 5626 5626 5626 5626 5625 5625 5625 5625 5625 5625 5625 5625 5624 5624 5624 5624 5623 5623 5622 5621 5621 5620 5619 5618 5616 5614 5613 5611 5610 5608 5607 5605 5603 5602 5599 5597 5594 5591 5588 5585 5583 5580
5623 5622 5621 5621 5620 5619 5618 5618 5617 5617 5616 5616 5617 5617 5618 5618 5618 5618 5617 5617 5616 5615 5616 5616 5617 5618 5618 5618 5618 5619 5619 5618 5618 5618 5619 5619 5619 5619 5619 5619 5619 5619 5619 5619 5619 5619 5619 5619 5619 5619 5619 5619 5619 5619 5619 5619 5618 5618 5618 5618 5617 5616 5616 5615 5614 5613 5611 5610 5609 5607 5606 5604 5603 5601 5600 5598 5596 5593 5591 5588 5585 5583 5580 5578 5575
5620 5619 5618 5617 5616 5614 5613 5612 5611 5610 5610 5610 5610 5610 5611 5611 5611 5611 5610 5610 5609 5608 5609 5610 5610 5610 5611 5611 5611 5611 5612 5611 5611 5611 5612 5612 5612 5613 5613 5613 5613 5613 5613 5613 5613 5613 5613 5613 5613 5613 5614 5614 5614 5614 5614 5614 5613 5613 5613 5612 5612 5611 5610 5609 5608 5607 5606 5605 5604 5602 5600 5599 5597 5596 5594 5592 5589 5587 5585 5582 5580 5578 5575 5573 5571
5618 5617 5615 5614 5612 5611 5609 5608 5607 5606 5605 5604 5604 5604 5605 5605 5604 5604 5604 5603 5602 5601 5601 5602 5603 5603 5603 5603 5603 5604 5604 5604 5604 5604 5604 5605 5605 5606 5606 5606 5607 5607 5607 5607 5607 5607 5607 5607 5608 5608 5608 5608 5609 5609 5609 5609 5608 5608 5607 5607 5606 5605 5605 5604 5603 5602 5601 5600 5598 5596 5595 5593 5592 5590 5588 5586 5584 5582 5579 5577 5575 5573 5571 5569 5566
5617 5615 5614 5612 5610 5608 5606 5605 5603 5602 5601 5600 5599 5598 5598 5598 5598 5598 5597 5597 5596 5595 5595 5595 5596 5596 5596 5596 5596 5596 5596 5597 5597 5597 5597 5597 5598 5599 5599 5600 5600 5600 5600 5601 5601 5601 5602 5602 5602 5603 5603 5603 5603 5604 5604 5603 5603 5603 5602 5601 5601 5600 5600 5599 5598 5597 5596 5594 5592 5591 5590 5588 5587 5585 5583 5581 5579 5577 5575 5573 5571 5568 5566 5564 5562
5615 5614 5612 5610 5608 5606 5604 5602 5601 5599 5597 5596 5595 5594 5593 5592 5592 5592 5591 5590 5590 5589 5588 5588 5589 5589 5589 5589 5589 5589 5589 5589 5590 5590 5590 5591 5591 5592 5593 5593 5593 5594 5594 5595 5595 5596 5596 5597 5597 5598 5598 5598 5598 5598 5598 5598 5598 5598 5597 5597 5596 5596 5595 5594 5593 5592 5590 5589 5587 5586 5585 5584 5583 5581 5579 5577 5575 5573 5570 5568 5566 5564 5562 5560 5558
5614 5612 5610 5609 5607 5605 5602 5600 5598 5596 5594 5593 5591 5590 5589 5588 5587 5587 5586 5585 5584 5583 5583 5582 5582 5583 5583 5583 5583 5583 5583 5583 5583 5584 5584 5585 5585 5586 5587 5587 5588 5588 5589 5589 5590 5590 5591 5592 5592 5593 5593 5593 5593 5593 5593 5593 5593 5593 5593 5592 5592 5591 5590 5589 5588 5586 5585 5584 5583 5582 5581 5580 5579 5577 5575 5573 5571 5568 5566 5564 5562 5560 5558 5556 5554
5613 5611 5609 5607 5605 5603 5601 5598 5596 5594 5592 5590 5588 5586 5585 5584 5583 5582 5582 5581 5579 5578 5578 5577 5577 5577 5577 5577 5577 5577 5578 5578 5578 5578 5578 5579 5580 5580 5581 5582 5582 5583 5583 5584 5585 5586 5586 5587 5587 5588 5588 5588 5588 5588 5588 5588 5588 5588 5588 5588 5587 5586 5585 5584 5583 5582 5581 5581 5580 5579 5578 5576 5575 5573 5571 5569 5567 5565 5562 5560 5558 5556 5554 5552 5550
5613 5610 5608 5606 5604 5601 5599 5597 5594 5592 5590 5587 5585 5583 5581 5580 5578 5578 5577 5576 5575 5574 5573 5572 5572 5572 5572 5572 5572 5572 5572 5572 5572 5573 5573 5574 5574 5575 5576 5577 5577 5578 5579 5579 5580 5581 5581 5582 5582 5583 5583 5583 5584 5584 5584 5584 5584 5584 5584 5583 5583 5582 5581 5580 5579 5579 5578 5578 5577 5576 5575 5573 5571 5569 5567 5565 5563 5561 5559 5557 5555 5553 5551 5549 5547
5611 5609 5607 5604 5602 5599 5597 5594 5592 5590 5587 5585 5583 5580 5578 5576 5575 5573 5573 5572 5571 5570 5569 5568 5568 5567 5567 5567 5567 5567 5567 5567 5567 5568 5568 5569 5569 5570 5571 5572 5573 5573 5574 5575 5575 5576 5577 5577 5578 5578 5579 5579 5580 5580 5580 5580 5580 5580 5580 5580 5579 5578 5578 5577 5576 5576 5576 5575 5574 5573 5572 5570 5568 5566 5564 5562 5560 5558 5555 5554 5552 5550 5548 5546 5544
5610 5607 5605 5602 5600 5597 5595 5592 5590 5587 5585 5582 5580 5578 5575 5573 5571 5570 5568 5567 5567 5566 5565 5564 5563 5563 5563 5563 5563 5563 5563 5563 5563 5563 5564 5564 5565 5566 5566 5567 5568 5569 5569 5570 5571 5572 5572 5573 5574 5574 5575 5575 5576 5576 5576 5576 5577 5576 5576 5576 5576 5575 5575 5574 5574 5573 5573 5572 5571 5570 5568 5567 5565 5563 5560 5558 5556 5554 5552 5551 5549 5547 5545 5543 5541
5608 5605 5603 5600 5598 5595 5592 5590 5587 5585 5582 5580 5577 5575 5572 5570 5568 5566 5565 5563 5562 5562 5561 5560 5559 5559 5558 5558 5558 5559 5559 5559 5559 5559 5559 5560 5560 5561 5562 5562 5563 5564 5565 5566 5567 5567 5568 5569 5570 5571 5571 5572 5572 5573 5573 5573 5573 5573 5573 5573 5572 5572 5572 5571 5571 5570 5570 5569 5568 5566 5565 5563 5562 5560 5557 5555 5553 5552 5550 5548 5546 5544 5542 5540 5538
5605 5603 5601 5598 5596 5593 5590 5588 5585 5582 5579 5577 5574 5572 5569 5567 5565 5563 5561 5559 5558 5557 5557 5556 5556 5555 5554 5554 5554 5554 5554 5555 5555 5555 5555 5556 5556 5557 5558 5558 5559 5560 5561 5562 5563 5563 5564 5565 5566 5567 5568 5568 5569 5569 5569 5569 5570 5570 5569 5569 5569 5569 5569 5568 5568 5567 5566 5565 5564 5563 5561 5560 5558 5556 5555 5553 5551 5549 5547 5545 5543 5541 5539 5537 5535
5603 5601 5598 5596 5593 5591 5588 5586 5583 5580 5577 5574 5572 5569 5566 5564 5562 5560 5558 5556 5554 5553 5552 5552 5552 5551 5551 5550 5549 5550 5550 5550 5550 5551 5551 5552 5553 5553 5554 5555 5555 5556 5557 5558 5559 5559 5560 5561 5562 5563 5564 5564 5565 5565 5566 5566 5566 5566 5566 5566 5566 5566 5565 5565 5564 5564 5563 5562 5560 5559 5558 5556 5555 5553 5552 5550 5548 5546 5544 5542 5541 5539 5537 5535 5533